Location: Tel Aviv
(32.0670°N, 34.7670°E)
Time: 12:35:15
(UTC+03:00)

ISS - Visible Passes

Search period start: 19 May 2025 00:00
Search period end: 29 May 2025 00:00
Orbit: 416 x 419 km, 51.6° (Epoch: 18 May)

Date Brightness Start Highest point End Pass type
(mag) Time Alt. Az. Time Alt. Az. Time Alt. Az.
22 May -0.5 22:36:25 10° NNW 22:37:02 13° NNW 22:37:02 13° NNW visible
23 May -1.2 21:48:55 10° N 21:50:40 15° NNE 21:50:40 15° NNE visible
24 May -0.7 22:36:32 10° NW 22:37:14 15° NW 22:37:14 15° NW visible
25 May -2.3 21:48:34 10° NNW 21:50:55 33° N 21:50:55 33° N visible
26 May -2.0 21:00:46 10° NNW 21:03:32 23° NE 21:04:38 19° ENE visible
26 May -0.5 22:37:25 10° WNW 22:37:33 11° WNW 22:37:33 11° WNW visible
27 May -1.4 20:13:16 10° N 20:15:13 15° NNE 20:17:11 10° ENE visible
27 May -2.5 21:48:56 10° NW 21:51:19 38° W 21:51:19 38° W visible
28 May -3.8 21:00:43 10° NW 21:04:04 76° NE 21:05:07 40° ESE visible
